Flag for Iran Weather past 2 weeks in Esfahãn, Iran

Now
66 °F

Sunny.


Feels Like: 66 °F
Forecast: 53 / 87 °F
Wind: 7 mph from Northwest

Location: Esfahan

Current Time: Oct 2, 2014 at 8:24:54 AM

Latest Report: Oct 2, 2014 at 8:00 AM


Visibility: 10 mi

Pressure: 30.21 "Hg

Humidity: 17%

Dew point: 19 °F

Location of EsfahãnLocation

Historic Weather in Esfahãn — Graph

°F

Esfahãn temperature yesterday

Maximum temperature yesterday: 90 °F (at 2:30 PM)
Minimum temperature yesterday: 52 °F (at 5:00 AM)
Average temperature yesterday: 72 °F

Past Weeks' High & Low Weather Summary

 TemperatureHumidityPressure
High95 °F (Sep 21, 3:30 PM)44% (Sep 19, 6:00 AM)30.21 "Hg (Sep 19, 6:00 AM)
Low48 °F (Sep 22, 6:00 AM)3% (Sep 21, 5:00 PM)29.74 "Hg (Sep 27, 6:00 AM)
Average73 °F17%30.04 "Hg
* Reported Sep 17 7:30 AM — Oct 2 7:00 AM, Esfahãn, Weather by CustomWeather, © 2014

Note: Actual official high and low records may vary slightly from our data, if they occured in-between our weather recording intervals... More about our weather records

Advertising

Esfahãn weather history for previous 24 hours

 ConditionsComfort  
Time TempWeatherWind HumidityBarometerVisibility
7:00 AM
Oct 2
59 °FClear.9 mph21%30.21 "Hg4 mi
6:30 AM57 °FClear.7 mph23%30.18 "Hg4 mi
6:00 AM57 °FClear.7 mph23%30.18 "Hg4 mi
5:30 AM55 °FClear.7 mph24%30.18 "Hg5 mi
5:00 AM55 °FClear.7 mph24%30.15 "Hg10 mi
4:30 AM54 °FClear.7 mph24%30.15 "Hg10 mi
4:00 AM54 °FClear.5 mph28%30.15 "Hg10 mi
3:30 AM55 °FClear.5 mph28%30.15 "Hg10 mi
3:00 AM55 °FClear.5 mph24%30.15 "Hg10 mi
2:30 AM55 °FClear.7 mph24%30.15 "Hg10 mi
2:00 AM55 °FClear.9 mph24%30.15 "Hg10 mi
1:30 AM55 °FClear.9 mph24%30.15 "Hg10 mi
1:00 AM57 °FClear.9 mph20%30.15 "Hg10 mi
12:30 AM55 °FClear.9 mph21%30.15 "Hg10 mi
12:00 AM61 °FClear.7 mph17%30.15 "Hg10 mi
11:30 PM
Oct 1
61 °FClear.7 mph16%30.15 "Hg10 mi
11:00 PM59 °FClear.7 mph16%30.15 "Hg10 mi
10:30 PM63 °FClear.5 mph16%30.15 "Hg10 mi
10:00 PM66 °FClear.5 mph15%30.15 "Hg10 mi
9:30 PM66 °FClear.7 mph14%30.15 "Hg10 mi
9:00 PM70 °FClear.7 mph13%30.15 "Hg10 mi
8:30 PM72 °FClear.7 mph13%30.12 "Hg10 mi
8:00 PM70 °FClear.9 mph15%30.12 "Hg10 mi
7:30 PM72 °FClear.7 mph15%30.12 "Hg10 mi
7:00 PM75 °FClear.9 mph12%30.09 "Hg10 mi
6:30 PM77 °FClear.12 mph12%30.09 "Hg10 mi
6:00 PM81 °FSunny.12 mph9%30.09 "Hg10 mi
5:30 PM86 °FSunny.14 mph8%30.07 "Hg10 mi
5:00 PM88 °FSunny.16 mph6%30.07 "Hg10 mi
4:30 PM90 °FSunny.14 mph6%30.07 "Hg10 mi
4:00 PM90 °FSunny.9 mph8%30.07 "Hg10 mi
3:30 PM90 °FSunny.9 mph8%30.07 "Hg10 mi
3:00 PM90 °FSunny.7 mph8%30.07 "Hg10 mi
2:30 PM90 °FSunny.7 mph7%30.09 "Hg10 mi
2:00 PM88 °FSunny.5 mph7%30.09 "Hg10 mi
1:30 PM88 °FSunny.7 mph8%30.12 "Hg10 mi
1:00 PM86 °FSunny.7 mph8%30.12 "Hg10 mi
12:30 PM86 °FSunny.12 mph9%30.12 "Hg10 mi
12:00 PM86 °FSunny.9 mph10%30.15 "Hg4 mi
11:30 AM84 °FSunny.9 mph11%30.15 "Hg4 mi
11:00 AM82 °FSunny.9 mph11%30.18 "Hg3 mi
10:30 AM81 °FSunny.9 mph14%30.18 "Hg2 mi
10:00 AM79 °FSunny.9 mph13%30.18 "Hg2 mi
9:30 AM75 °FSunny.9 mph18%30.18 "Hg2 mi
9:00 AM73 °FSunny.9 mph16%30.18 "Hg2 mi
8:30 AM70 °FSunny.9 mph18%30.18 "Hg2 mi
8:00 AM66 °FSunny.9 mph21%30.18 "Hg2 mi
Weather by CustomWeather, © 2014

See weather overviewHow to use our weather pages